| time (UTC) | temp F | wind direction | speed MPH | gust MPH | rain 1hr in | rain 24hr in | rain mn in | humidity % | barometer mb |
| 20260906170003 | 85 | 93 | 2.0 | 7.0 | 0.00 | 0.00 | 0.00 | 65 | 1019.7 |
| 20260906165504 | 85 | 104 | 3.0 | 7.0 | 0.00 | 0.00 | 0.00 | 67 | 1019.6 |
| 20260906165003 | 85 | 99 | 3.0 | 8.0 | 0.00 | 0.00 | 0.00 | 67 | 1019.5 |
| 20260906164504 | 85 | 87 | 3.0 | 8.0 | 0.00 | 0.00 | 0.00 | 68 | 1019.6 |
| 20260906164004 | 86 | 86 | 2.0 | 7.0 | 0.00 | 0.00 | 0.00 | 67 | 1019.6 |
| 20260906163503 | 86 | 92 | 2.0 | 6.0 | 0.00 | 0.00 | 0.00 | 67 | 1019.6 |
| 20260906163004 | 85 | 94 | 3.0 | 10.0 | 0.00 | 0.00 | 0.00 | 68 | 1019.6 |
| 20260906162504 | 85 | 101 | 3.0 | 10.0 | 0.00 | 0.00 | 0.00 | 70 | 1019.4 |
| 20260906162212 | 85 | 101 | 3.0 | 9.0 | 0.00 | 0.00 | 0.00 | 70 | 1019.6 |
| 20260906161716 | 85 | 105 | 4.0 | 10.0 | 0.00 | 0.00 | 0.00 | 70 | 1019.5 |
| 20260906161004 | 85 | 93 | 3.0 | 14.0 | 0.00 | 0.00 | 0.00 | 71 | 1019.4 |
| 20260906160503 | 85 | 79 | 4.0 | 14.0 | 0.00 | 0.00 | 0.00 | 71 | 1019.5 |
| 20260906160004 | 86 | 72 | 3.0 | 10.0 | 0.00 | 0.00 | 0.00 | 68 | 1019.2 |
| 20260906155717 | 87 | 82 | 3.0 | 7.0 | 0.00 | 0.00 | 0.00 | 65 | 1019.5 |
| 20260906155003 | 87 | 90 | 3.0 | 11.0 | 0.00 | 0.00 | 0.00 | 61 | 1019.1 |
| 20260906154504 | 87 | 99 | 3.0 | 7.0 | 0.00 | 0.00 | 0.00 | 60 | 1019.1 |
| 20260906154004 | 87 | 119 | 3.0 | 10.0 | 0.00 | 0.00 | 0.00 | 61 | 1019.1 |
| 20260906153714 | 88 | 115 | 3.0 | 10.0 | 0.00 | 0.00 | 0.00 | 61 | 1019.1 |
| 20260906153004 | 88 | 98 | 3.0 | 9.0 | 0.00 | 0.00 | 0.00 | 61 | 1019.2 |
| 20260906152503 | 89 | 112 | 2.0 | 6.0 | 0.00 | 0.00 | 0.00 | 61 | 1019.0 |
| 20260906152003 | 90 | 106 | 2.0 | 8.0 | 0.00 | 0.00 | 0.00 | 58 | 1018.9 |
| 20260906151504 | 90 | 118 | 2.0 | 8.0 | 0.00 | 0.00 | 0.00 | 55 | 1019.0 |
| 20260906151004 | 91 | 100 | 2.0 | 9.0 | 0.00 | 0.00 | 0.00 | 54 | 1018.9 |
| 20260906150717 | 91 | 99 | 2.0 | 9.0 | 0.00 | 0.00 | 0.00 | 54 | 1018.7 |
| 20260906150003 | 91 | 104 | 3.0 | 8.0 | 0.00 | 0.00 | 0.00 | 50 | 1018.9 |
| 20260906145503 | 91 | 91 | 3.0 | 8.0 | 0.00 | 0.00 | 0.00 | 52 | 1018.8 |
| 20260906145003 | 92 | 97 | 3.0 | 8.0 | 0.00 | 0.00 | 0.00 | 52 | 1018.6 |
| 20260906144503 | 92 | 83 | 2.0 | 8.0 | 0.00 | 0.00 | 0.00 | 48 | 1018.5 |
| 20260906144004 | 93 | 85 | 2.0 | 7.0 | 0.00 | 0.00 | 0.00 | 45 | 1018.7 |
| 20260906143503 | 92 | 86 | 3.0 | 10.0 | 0.00 | 0.00 | 0.00 | 46 | 1018.7 |
| 20260906143004 | 93 | 87 | 3.0 | 10.0 | 0.00 | 0.00 | 0.00 | 44 | 1018.6 |
| 20260906142503 | 93 | 101 | 2.0 | 7.0 | 0.00 | 0.00 | 0.00 | 43 | 1018.5 |
| 20260906142005 | 94 | 91 | 3.0 | 13.0 | 0.00 | 0.00 | 0.00 | 44 | 1018.5 |
| 20260906141503 | 93 | 64 | 2.0 | 13.0 | 0.00 | 0.00 | 0.00 | 41 | 1018.6 |
| 20260906141004 | 93 | 60 | 2.0 | 8.0 | 0.00 | 0.00 | 0.00 | 40 | 1018.5 |
| 20260906140503 | 94 | 70 | 2.0 | 9.0 | 0.00 | 0.00 | 0.00 | 44 | 1018.6 |
| 20260906140004 | 93 | 72 | 3.0 | 9.0 | 0.00 | 0.00 | 0.00 | 43 | 1018.7 |
| 20260906135503 | 93 | 92 | 3.0 | 8.0 | 0.00 | 0.00 | 0.00 | 45 | 1018.4 |
| 20260906135004 | 93 | 100 | 3.0 | 7.0 | 0.00 | 0.00 | 0.00 | 45 | 1018.4 |
| 20260906134503 | 93 | 91 | 3.0 | 9.0 | 0.00 | 0.00 | 0.00 | 44 | 1018.6 |
| 20260906134004 | 93 | 97 | 3.0 | 9.0 | 0.00 | 0.00 | 0.00 | 44 | 1018.4 |
| 20260906133504 | 93 | 79 | 2.0 | 6.0 | 0.00 | 0.00 | 0.00 | 44 | 1018.7 |
| 20260906133004 | 93 | 73 | 2.0 | 10.0 | 0.00 | 0.00 | 0.00 | 44 | 1018.6 |
| 20260906132504 | 93 | 76 | 2.0 | 10.0 | 0.00 | 0.00 | 0.00 | 40 | 1018.7 |
| 20260906132214 | 93 | 60 | 1.0 | 5.0 | 0.00 | 0.00 | 0.00 | 40 | 1018.7 |
| 20260906131503 | 93 | 93 | 2.0 | 9.0 | 0.00 | 0.00 | 0.00 | 40 | 1018.7 |
| 20260906131003 | 94 | 98 | 2.0 | 9.0 | 0.00 | 0.00 | 0.00 | 40 | 1018.9 |
| 20260906130504 | 94 | 74 | 1.0 | 5.0 | 0.00 | 0.00 | 0.00 | 38 | 1019.0 |
| 20260906130004 | 93 | 98 | 2.0 | 8.0 | 0.00 | 0.00 | 0.00 | 39 | 1018.9 |
| 20260906125714 | 93 | 111 | 2.0 | 8.0 | 0.00 | 0.00 | 0.00 | 39 | 1019.1 |
| 20260906125003 | 94 | 99 | 2.0 | 4.0 | 0.00 | 0.00 | 0.00 | 37 | 1019.1 |
| 20260906124504 | 92 | 98 | 2.0 | 7.0 | 0.00 | 0.00 | 0.00 | 40 | 1019.1 |
| 20260906124003 | 92 | 100 | 2.0 | 7.0 | 0.00 | 0.00 | 0.00 | 42 | 1019.1 |
| 20260906123503 | 92 | 75 | 2.0 | 6.0 | 0.00 | 0.00 | 0.00 | 39 | 1019.2 |
| 20260906123004 | 92 | 84 | 2.0 | 4.0 | 0.00 | 0.00 | 0.00 | 42 | 1019.2 |
| 20260906122504 | 93 | 105 | 3.0 | 8.0 | 0.00 | 0.00 | 0.00 | 43 | 1019.2 |
| 20260906122004 | 92 | 99 | 2.0 | 8.0 | 0.00 | 0.00 | 0.00 | 44 | 1019.4 |
| 20260906121503 | 91 | 103 | 2.0 | 7.0 | 0.00 | 0.00 | 0.00 | 45 | 1019.5 |
| 20260906121216 | 92 | 93 | 2.0 | 7.0 | 0.00 | 0.00 | 0.00 | 44 | 1019.3 |
| 20260906120503 | 92 | 137 | 2.0 | 6.0 | 0.00 | 0.00 | 0.00 | 46 | 1019.3 |
| 20260906120004 | 91 | 150 | 2.0 | 8.0 | 0.00 | 0.00 | 0.00 | 45 | 1019.1 |
| 20260906115504 | 92 | 124 | 2.0 | 8.0 | 0.00 | 0.00 | 0.00 | 46 | 1019.4 |
| 20260906115003 | 90 | 105 | 2.0 | 7.0 | 0.00 | 0.00 | 0.00 | 48 | 1019.5 |
| 20260906114504 | 90 | 108 | 2.0 | 7.0 | 0.00 | 0.00 | 0.00 | 48 | 1019.5 |
| 20260906114004 | 91 | 113 | 2.0 | 7.0 | 0.00 | 0.00 | 0.00 | 48 | 1019.3 |
| 20260906113503 | 90 | 85 | 2.0 | 7.0 | 0.00 | 0.00 | 0.00 | 47 | 1019.4 |
| 20260906113004 | 90 | 90 | 2.0 | 7.0 | 0.00 | 0.00 | 0.00 | 49 | 1019.4 |
| 20260906112504 | 92 | 110 | 2.0 | 6.0 | 0.00 | 0.00 | 0.00 | 48 | 1019.3 |
| 20260906112003 | 90 | 94 | 2.0 | 6.0 | 0.00 | 0.00 | 0.00 | 48 | 1019.5 |
| 20260906111503 | 91 | 82 | 2.0 | 7.0 | 0.00 | 0.00 | 0.00 | 49 | 1019.4 |
| 20260906111003 | 92 | 96 | 2.0 | 7.0 | 0.00 | 0.00 | 0.00 | 47 | 1019.3 |
| 20260906110503 | 93 | 99 | 2.0 | 7.0 | 0.00 | 0.00 | 0.00 | 45 | 1019.3 |
| 20260906110004 | 90 | 88 | 2.0 | 7.0 | 0.00 | 0.00 | 0.00 | 49 | 1019.5 |
| 20260906105503 | 90 | 88 | 1.0 | 4.0 | 0.00 | 0.00 | 0.00 | 45 | 1019.6 |
| 20260906105003 | 92 | 124 | 2.0 | 8.0 | 0.00 | 0.00 | 0.00 | 46 | 1019.5 |
| 20260906104503 | 91 | 132 | 3.0 | 8.0 | 0.00 | 0.00 | 0.00 | 47 | 1019.6 |
| 20260906104003 | 91 | 117 | 2.0 | 5.0 | 0.00 | 0.00 | 0.00 | 46 | 1019.7 |
| 20260906103503 | 91 | 107 | 1.0 | 7.0 | 0.00 | 0.00 | 0.00 | 44 | 1019.7 |
| 20260906103003 | 94 | 118 | 1.0 | 7.0 | 0.00 | 0.00 | 0.00 | 42 | 1019.5 |
| 20260906102713 | 92 | 103 | 1.0 | 4.0 | 0.00 | 0.00 | 0.00 | 43 | 1019.6 |
| 20260906102003 | 91 | 100 | 2.0 | 4.0 | 0.00 | 0.00 | 0.00 | 44 | 1019.8 |
| 20260906101504 | 92 | 113 | 2.0 | 4.0 | 0.00 | 0.00 | 0.00 | 44 | 1019.7 |
| 20260906101004 | 93 | 129 | 2.0 | 7.0 | 0.00 | 0.00 | 0.00 | 42 | 1019.7 |
| 20260906100504 | 93 | 136 | 2.0 | 7.0 | 0.00 | 0.00 | 0.00 | 42 | 1019.9 |
| 20260906100003 | 93 | 91 | 1.0 | 6.0 | 0.00 | 0.00 | 0.00 | 42 | 1019.8 |
| 20260906095503 | 91 | 108 | 1.0 | 6.0 | 0.00 | 0.00 | 0.00 | 42 | 1020.0 |
| 20260906095003 | 92 | 137 | 2.0 | 4.0 | 0.00 | 0.00 | 0.00 | 41 | 1019.8 |
| 20260906094503 | 94 | 127 | 2.0 | 6.0 | 0.00 | 0.00 | 0.00 | 41 | 1019.9 |
| 20260906094003 | 92 | 112 | 1.0 | 6.0 | 0.00 | 0.00 | 0.00 | 40 | 1019.9 |
| 20260906093504 | 92 | 124 | 1.0 | 6.0 | 0.00 | 0.00 | 0.00 | 40 | 1019.9 |
| 20260906093003 | 93 | 124 | 1.0 | 6.0 | 0.00 | 0.00 | 0.00 | 38 | 1020.1 |
| 20260906092503 | 93 | 125 | 1.0 | 4.0 | 0.00 | 0.00 | 0.00 | 40 | 1020.0 |
| 20260906092004 | 92 | 129 | 1.0 | 4.0 | 0.00 | 0.00 | 0.00 | 39 | 1019.9 |
| 20260906091503 | 93 | 134 | 1.0 | 4.0 | 0.00 | 0.00 | 0.00 | 39 | 1020.1 |
| 20260906091003 | 92 | 124 | 2.0 | 6.0 | 0.00 | 0.00 | 0.00 | 39 | 1020.1 |
| 20260906090503 | 91 | 114 | 2.0 | 6.0 | 0.00 | 0.00 | 0.00 | 40 | 1020.3 |
| 20260906090003 | 92 | 109 | 1.0 | 4.0 | 0.00 | 0.00 | 0.00 | 39 | 1020.2 |
| 20260906085503 | 93 | 124 | 1.0 | 4.0 | 0.00 | 0.00 | 0.00 | 37 | 1020.1 |
| 20260906085003 | 93 | 154 | 1.0 | 3.0 | 0.00 | 0.00 | 0.00 | 36 | 1020.0 |
| 20260906084503 | 92 | 144 | 1.0 | 3.0 | 0.00 | 0.00 | 0.00 | 37 | 1020.1 |
| 20260906084003 | 94 | 135 | 1.0 | 3.0 | 0.00 | 0.00 | 0.00 | 36 | 1020.0 |
| 20260906083503 | 93 | 163 | 1.0 | 6.0 | 0.00 | 0.00 | 0.00 | 37 | 1020.1 |
| 20260906083003 | 92 | 171 | 1.0 | 6.0 | 0.00 | 0.00 | 0.00 | 37 | 1020.0 |
| 20260906082503 | 92 | 164 | 1.0 | 3.0 | 0.00 | 0.00 | 0.00 | 38 | 1020.1 |
| 20260906082003 | 92 | 174 | 1.0 | 3.0 | 0.00 | 0.00 | 0.00 | 38 | 1019.9 |
| 20260906081504 | 91 | 168 | 1.0 | 3.0 | 0.00 | 0.00 | 0.00 | 40 | 1019.8 |
| 20260906081213 | 90 | 155 | 1.0 | 3.0 | 0.00 | 0.00 | 0.00 | 41 | 1020.0 |
| 20260906080503 | 89 | 116 | 1.0 | 3.0 | 0.00 | 0.00 | 0.00 | 44 | 1019.9 |
| 20260906080003 | 90 | 125 | 1.0 | 6.0 | 0.00 | 0.00 | 0.00 | 44 | 1019.9 |
| 20260906075503 | 90 | 133 | 1.0 | 6.0 | 0.00 | 0.00 | 0.00 | 44 | 1019.9 |
| 20260906075216 | 90 | 135 | 1.0 | 3.0 | 0.00 | 0.00 | 0.00 | 44 | 1019.9 |
| 20260906074504 | 89 | 111 | 1.0 | 2.0 | 0.00 | 0.00 | 0.00 | 46 | 1019.7 |
| 20260906074216 | 89 | 100 | 1.0 | 3.0 | 0.00 | 0.00 | 0.00 | 45 | 1019.8 |
| 20260906073504 | 89 | 170 | 1.0 | 4.0 | 0.00 | 0.00 | 0.00 | 46 | 1019.6 |
| 20260906073004 | 89 | 177 | 1.0 | 4.0 | 0.00 | 0.00 | 0.00 | 46 | 1019.7 |
| 20260906072715 | 89 | 158 | 1.0 | 4.0 | 0.00 | 0.00 | 0.00 | 47 | 1019.6 |
| 20260906072003 | 89 | 123 | 1.0 | 3.0 | 0.00 | 0.00 | 0.00 | 48 | 1019.6 |
| 20260906071503 | 89 | 168 | 1.0 | 3.0 | 0.00 | 0.00 | 0.00 | 47 | 1019.5 |
| 20260906071004 | 89 | 170 | 1.0 | 3.0 | 0.00 | 0.00 | 0.00 | 48 | 1019.6 |
| 20260906070503 | 89 | 179 | 1.0 | 2.0 | 0.00 | 0.00 | 0.00 | 49 | 1019.4 |
| 20260906070003 | 88 | 183 | 1.0 | 2.0 | 0.00 | 0.00 | 0.00 | 45 | 1019.4 |
| 20260906065504 | 89 | 184 | 1.0 | 2.0 | 0.00 | 0.00 | 0.00 | 46 | 1019.2 |
| 20260906065003 | 89 | 177 | 1.0 | 2.0 | 0.00 | 0.00 | 0.00 | 46 | 1019.4 |
| 20260906064503 | 89 | 171 | 0.0 | 2.0 | 0.00 | 0.00 | 0.00 | 47 | 1019.4 |
| 20260906064003 | 89 | 187 | 0.0 | 1.0 | 0.00 | 0.00 | 0.00 | 47 | 1019.3 |
| 20260906063504 | 88 | 175 | 0.0 | 1.0 | 0.00 | 0.00 | 0.00 | 47 | 1019.2 |
| 20260906063004 | 88 | 172 | 0.0 | 1.0 | 0.00 | 0.00 | 0.00 | 50 | 1019.3 |
| 20260906062716 | 88 | 170 | 0.0 | 1.0 | 0.00 | 0.00 | 0.00 | 50 | 1019.3 |
| 20260906062003 | 87 | 163 | 0.0 | 2.0 | 0.00 | 0.00 | 0.00 | 51 | 1019.4 |
| 20260906061504 | 88 | 180 | 0.0 | 1.0 | 0.00 | 0.00 | 0.00 | 50 | 1019.2 |
| 20260906061003 | 86 | 187 | 0.0 | 1.0 | 0.00 | 0.00 | 0.00 | 51 | 1019.4 |
| 20260906060713 | 86 | 183 | 0.0 | 1.0 | 0.00 | 0.00 | 0.00 | 50 | 1019.4 |
| 20260906060004 | 86 | 159 | 0.0 | 1.0 | 0.00 | 0.00 | 0.00 | 47 | 1019.3 |
| 20260906055503 | 85 | 155 | 0.0 | 1.0 | 0.00 | 0.00 | 0.00 | 46 | 1019.3 |
| 20260906055003 | 84 | 175 | 0.0 | 1.0 | 0.00 | 0.00 | 0.00 | 46 | 1019.3 |
| 20260906054503 | 84 | 172 | 0.0 | 1.0 | 0.00 | 0.00 | 0.00 | 47 | 1019.4 |
| 20260906054003 | 84 | 190 | 0.0 | 1.0 | 0.00 | 0.00 | 0.00 | 47 | 1019.3 |
| 20260906053504 | 83 | 187 | 0.0 | 0.0 | 0.00 | 0.00 | 0.00 | 47 | 1019.5 |
| 20260906053213 | 83 | 176 | 0.0 | 1.0 | 0.00 | 0.00 | 0.00 | 48 | 1019.3 |
| 20260906052503 | 81 | 161 | 0.0 | 2.0 | 0.00 | 0.00 | 0.00 | 50 | 1019.2 |
| 20260906052004 | 80 | 164 | 0.0 | 2.0 | 0.00 | 0.00 | 0.00 | 50 | 1019.2 |
| 20260906051503 | 80 | 180 | 0.0 | 2.0 | 0.00 | 0.00 | 0.00 | 51 | 1019.1 |
| 20260906051003 | 79 | 197 | 0.0 | 1.0 | 0.00 | 0.00 | 0.00 | 52 | 1019.0 |
| 20260906050503 | 78 | 204 | 0.0 | 1.0 | 0.00 | 0.00 | 0.00 | 53 | 1019.2 |
| 20260906050003 | 78 | 209 | 1.0 | 2.0 | 0.00 | 0.00 | 0.00 | 54 | 1019.2 |
| 20260906045714 | 77 | 210 | 1.0 | 2.0 | 0.00 | 0.00 | 0.00 | 54 | 1019.2 |
| 20260906045003 | 77 | 213 | 1.0 | 2.0 | 0.00 | 0.00 | 0.00 | 54 | 1019.2 |
| 20260906044504 | 77 | 215 | 1.0 | 2.0 | 0.00 | 0.00 | 0.00 | 55 | 1019.2 |
| 20260906044004 | 77 | 216 | 1.0 | 2.0 | 0.00 | 0.00 | 0.00 | 54 | 1019.4 |
| 20260906043504 | 77 | 223 | 1.0 | 2.0 | 0.00 | 0.00 | 0.00 | 55 | 1019.3 |
| 20260906043003 | 77 | 229 | 1.0 | 1.0 | 0.00 | 0.00 | 0.00 | 54 | 1019.1 |
| 20260906042503 | 77 | 221 | 1.0 | 1.0 | 0.00 | 0.00 | 0.00 | 55 | 1019.2 |
| 20260906042003 | 77 | 209 | 0.0 | 1.0 | 0.00 | 0.00 | 0.00 | 56 | 1019.0 |
| 20260906041504 | 77 | 212 | 0.0 | 1.0 | 0.00 | 0.00 | 0.00 | 56 | 1019.0 |
| 20260906041003 | 76 | 228 | 0.0 | 1.0 | 0.00 | 0.00 | 0.00 | 57 | 1019.1 |
| 20260906040504 | 77 | 223 | 0.0 | 1.0 | 0.00 | 0.00 | 0.00 | 57 | 1019.0 |
| 20260906040004 | 77 | 222 | 0.0 | 1.0 | 0.00 | 0.00 | 0.00 | 58 | 1018.9 |
| 20260906035504 | 77 | 205 | 0.0 | 1.0 | 0.00 | 0.00 | 0.00 | 59 | 1018.8 |
| 20260906035003 | 78 | 218 | 0.0 | 1.0 | 0.00 | 0.00 | 0.00 | 58 | 1018.8 |
| 20260906034503 | 78 | 221 | 0.0 | 1.0 | 0.00 | 0.00 | 0.00 | 58 | 1018.9 |
| 20260906034004 | 78 | 223 | 0.0 | 1.0 | 0.00 | 0.00 | 0.00 | 56 | 1018.7 |
| 20260906033504 | 78 | 257 | 0.0 | 1.0 | 0.00 | 0.00 | 0.00 | 56 | 1019.0 |
| 20260906033215 | 79 | 266 | 1.0 | 2.0 | 0.00 | 0.00 | 0.00 | 57 | 1018.9 |
| 20260906032504 | 79 | 281 | 1.0 | 2.0 | 0.00 | 0.00 | 0.00 | 57 | 1019.0 |
| 20260906032003 | 79 | 281 | 1.0 | 2.0 | 0.00 | 0.00 | 0.00 | 57 | 1018.8 |
| 20260906031714 | 79 | 277 | 1.0 | 2.0 | 0.00 | 0.00 | 0.00 | 57 | 1018.7 |
| 20260906031004 | 78 | 249 | 0.0 | 1.0 | 0.00 | 0.00 | 0.00 | 57 | 1018.8 |
| 20260906030504 | 78 | 247 | 1.0 | 1.0 | 0.00 | 0.00 | 0.00 | 58 | 1018.8 |
| 20260906030003 | 79 | 246 | 1.0 | 2.0 | 0.00 | 0.00 | 0.00 | 58 | 1018.8 |
| 20260906025715 | 79 | 252 | 1.0 | 2.0 | 0.00 | 0.00 | 0.00 | 57 | 1018.8 |
| 20260906025213 | 79 | 255 | 1.0 | 2.0 | 0.00 | 0.00 | 0.00 | 55 | 1018.6 |
| 20260906024503 | 79 | 237 | 0.0 | 1.0 | 0.00 | 0.00 | 0.00 | 53 | 1018.9 |
| 20260906024003 | 79 | 244 | 0.0 | 1.0 | 0.00 | 0.00 | 0.00 | 53 | 1018.8 |
| 20260906023504 | 79 | 253 | 0.0 | 1.0 | 0.00 | 0.00 | 0.00 | 52 | 1018.7 |
| 20260906023216 | 80 | 241 | 0.0 | 1.0 | 0.00 | 0.00 | 0.00 | 52 | 1018.7 |
| 20260906022713 | 79 | 247 | 0.0 | 1.0 | 0.00 | 0.00 | 0.00 | 52 | 1018.7 |
| 20260906022216 | 79 | 238 | 0.0 | 1.0 | 0.00 | 0.00 | 0.00 | 52 | 1018.7 |
| 20260906021503 | 79 | 230 | 0.0 | 1.0 | 0.00 | 0.00 | 0.00 | 53 | 1018.8 |
| 20260906021004 | 80 | 248 | 0.0 | 1.0 | 0.00 | 0.00 | 0.00 | 52 | 1018.7 |
| 20260906020504 | 80 | 271 | 1.0 | 2.0 | 0.00 | 0.00 | 0.00 | 51 | 1018.8 |
| 20260906020003 | 80 | 269 | 1.0 | 2.0 | 0.00 | 0.00 | 0.00 | 52 | 1018.8 |
| 20260906015503 | 80 | 263 | 1.0 | 2.0 | 0.00 | 0.00 | 0.00 | 51 | 1018.9 |
| 20260906015004 | 79 | 265 | 1.0 | 2.0 | 0.00 | 0.00 | 0.00 | 51 | 1018.9 |
| 20260906014717 | 79 | 262 | 0.0 | 2.0 | 0.00 | 0.00 | 0.00 | 52 | 1018.9 |
| 20260906014004 | 79 | 207 | 0.0 | 1.0 | 0.00 | 0.00 | 0.00 | 51 | 1018.9 |
| 20260906013503 | 78 | 196 | 0.0 | 1.0 | 0.00 | 0.00 | 0.00 | 52 | 1019.1 |
| 20260906013004 | 78 | 182 | 0.0 | 1.0 | 0.00 | 0.00 | 0.00 | 52 | 1018.8 |
| 20260906012503 | 78 | 166 | 0.0 | 1.0 | 0.00 | 0.00 | 0.00 | 53 | 1019.0 |
| 20260906012004 | 79 | 181 | 0.0 | 1.0 | 0.00 | 0.00 | 0.00 | 52 | 1019.1 |
| 20260906011503 | 78 | 191 | 0.0 | 1.0 | 0.00 | 0.00 | 0.00 | 53 | 1019.0 |
| 20260906011003 | 79 | 198 | 0.0 | 1.0 | 0.00 | 0.00 | 0.00 | 53 | 1019.0 |
| 20260906010716 | 79 | 201 | 0.0 | 1.0 | 0.00 | 0.00 | 0.00 | 53 | 1019.2 |
| 20260906010003 | 79 | 194 | 0.0 | 1.0 | 0.00 | 0.00 | 0.00 | 53 | 1019.1 |
| 20260906005504 | 79 | 184 | 0.0 | 1.0 | 0.00 | 0.00 | 0.00 | 53 | 1019.1 |
| 20260906005004 | 79 | 186 | 0.0 | 1.0 | 0.00 | 0.00 | 0.00 | 54 | 1019.1 |
| 20260906004503 | 79 | 181 | 0.0 | 1.0 | 0.00 | 0.00 | 0.00 | 54 | 1019.2 |
| 20260906004003 | 79 | 182 | 0.0 | 1.0 | 0.00 | 0.00 | 0.00 | 54 | 1019.2 |
| 20260906003503 | 79 | 190 | 0.0 | 1.0 | 0.00 | 0.00 | 0.00 | 55 | 1019.3 |
| 20260906003004 | 79 | 193 | 0.0 | 2.0 | 0.00 | 0.00 | 0.00 | 56 | 1019.2 |
| 20260906002715 | 79 | 192 | 0.0 | 2.0 | 0.00 | 0.00 | 0.00 | 56 | 1019.0 |
| 20260906002003 | 79 | 188 | 0.0 | 1.0 | 0.00 | 0.00 | 0.00 | 57 | 1019.4 |
| 20260906001503 | 79 | 204 | 0.0 | 1.0 | 0.00 | 0.00 | 0.00 | 57 | 1019.2 |
| 20260906001213 | 79 | 209 | 0.0 | 1.0 | 0.00 | 0.00 | 0.00 | 57 | 1019.1 |
| 20260906000503 | 79 | 206 | 0.0 | 1.0 | 0.00 | 0.00 | 0.00 | 58 | 1019.2 |
| 20260906000003 | 79 | 196 | 0.0 | 1.0 | 0.00 | 0.00 | 0.00 | 59 | 1019.3 |
| 20260905235718 | 79 | 199 | 0.0 | 1.0 | 0.00 | 0.00 | 0.00 | 59 | 1019.4 |
| 20260905235003 | 80 | 196 | 0.0 | 0.0 | 0.00 | 0.00 | 0.00 | 61 | 1019.4 |
| 20260905234504 | 80 | 196 | 0.0 | 1.0 | 0.00 | 0.00 | 0.00 | 62 | 1019.3 |
| 20260905234003 | 80 | 214 | 0.0 | 1.0 | 0.00 | 0.00 | 0.00 | 61 | 1019.4 |
| 20260905233714 | 80 | 0 | 0.0 | 0.0 | 0.00 | 0.00 | 0.00 | 61 | 1019.3 |
| 20260905233217 | 80 | 0 | 0.0 | 0.0 | 0.00 | 0.00 | 0.00 | 62 | 1019.5 |
| 20260905232504 | 80 | 0 | 0.0 | 0.0 | 0.00 | 0.00 | 0.00 | 64 | 1019.4 |
| 20260905232213 | 80 | 0 | 0.0 | 0.0 | 0.00 | 0.00 | 0.00 | 64 | 1019.5 |
| 20260905231504 | 80 | 0 | 0.0 | 0.0 | 0.00 | 0.00 | 0.00 | 64 | 1019.4 |
| 20260905230718 | 80 | 0 | 0.0 | 0.0 | 0.00 | 0.00 | 0.00 | 64 | 1019.6 |
| 20260905230003 | 80 | 0 | 0.0 | 0.0 | 0.00 | 0.00 | 0.00 | 64 | 1019.5 |
| 20260905225713 | 80 | 243 | 0.0 | 1.0 | 0.00 | 0.00 | 0.00 | 64 | 1019.7 |
| 20260905225216 | 80 | 243 | 0.0 | 1.0 | 0.00 | 0.00 | 0.00 | 64 | 1019.7 |
| 20260905224714 | 81 | 0 | 0.0 | 0.0 | 0.00 | 0.00 | 0.00 | 64 | 1019.8 |
| 20260905224004 | 81 | 0 | 0.0 | 0.0 | 0.00 | 0.00 | 0.00 | 63 | 1019.6 |
| 20260905223504 | 81 | 0 | 0.0 | 0.0 | 0.00 | 0.00 | 0.00 | 63 | 1019.5 |
| 20260905223003 | 81 | 0 | 0.0 | 0.0 | 0.00 | 0.00 | 0.00 | 64 | 1019.5 |
| 20260905222504 | 81 | 0 | 0.0 | 0.0 | 0.00 | 0.00 | 0.00 | 64 | 1019.4 |
| 20260905222004 | 81 | 0 | 0.0 | 0.0 | 0.00 | 0.00 | 0.00 | 63 | 1019.5 |
| 20260905221504 | 81 | 0 | 0.0 | 0.0 | 0.00 | 0.00 | 0.00 | 63 | 1019.6 |
| 20260905221215 | 81 | 0 | 0.0 | 0.0 | 0.00 | 0.00 | 0.00 | 63 | 1019.4 |
| 20260905220503 | 81 | 0 | 0.0 | 0.0 | 0.00 | 0.00 | 0.00 | 63 | 1019.6 |
| 20260905220007 | 81 | 0 | 0.0 | 0.0 | 0.00 | 0.00 | 0.00 | 63 | 1019.5 |
| 20260905215503 | 81 | 0 | 0.0 | 0.0 | 0.00 | 0.00 | 0.00 | 63 | 1019.5 |
| 20260905215003 | 82 | 0 | 0.0 | 0.0 | 0.00 | 0.00 | 0.00 | 63 | 1019.5 |
| 20260905214505 | 82 | 0 | 0.0 | 0.0 | 0.00 | 0.00 | 0.00 | 63 | 1019.5 |
| 20260905214003 | 82 | 210 | 0.0 | 1.0 | 0.00 | 0.00 | 0.00 | 63 | 1019.4 |
| 20260905213716 | 82 | 207 | 0.0 | 1.0 | 0.00 | 0.00 | 0.00 | 63 | 1019.4 |
| 20260905213004 | 82 | 197 | 0.0 | 1.0 | 0.00 | 0.00 | 0.00 | 62 | 1019.6 |
| 20260905212504 | 82 | 247 | 0.0 | 1.0 | 0.00 | 0.00 | 0.00 | 62 | 1019.6 |
| 20260905212004 | 82 | 199 | 0.0 | 1.0 | 0.00 | 0.00 | 0.00 | 63 | 1019.4 |
| 20260905211504 | 82 | 200 | 0.0 | 1.0 | 0.00 | 0.00 | 0.00 | 63 | 1019.5 |
| 20260905211004 | 82 | 201 | 0.0 | 1.0 | 0.00 | 0.00 | 0.00 | 63 | 1019.5 |
| 20260905210503 | 82 | 0 | 0.0 | 0.0 | 0.00 | 0.00 | 0.00 | 63 | 1019.6 |
| 20260905210004 | 82 | 202 | 0.0 | 1.0 | 0.00 | 0.00 | 0.00 | 63 | 1019.4 |
| 20260905205715 | 83 | 201 | 0.0 | 1.0 | 0.00 | 0.00 | 0.00 | 63 | 1019.3 |
| 20260905205004 | 83 | 206 | 0.0 | 1.0 | 0.00 | 0.00 | 0.00 | 63 | 1019.5 |
| 20260905204504 | 83 | 212 | 0.0 | 1.0 | 0.00 | 0.00 | 0.00 | 62 | 1019.4 |
| 20260905204003 | 83 | 0 | 0.0 | 0.0 | 0.00 | 0.00 | 0.00 | 62 | 1019.4 |
| 20260905203504 | 83 | 251 | 0.0 | 1.0 | 0.00 | 0.00 | 0.00 | 62 | 1019.4 |
| 20260905203215 | 83 | 249 | 0.0 | 1.0 | 0.00 | 0.00 | 0.00 | 62 | 1019.6 |
| 20260905202712 | 83 | 247 | 0.0 | 1.0 | 0.00 | 0.00 | 0.00 | 61 | 1019.4 |
| 20260905202004 | 83 | 260 | 0.0 | 1.0 | 0.00 | 0.00 | 0.00 | 62 | 1019.6 |
| 20260905201503 | 83 | 266 | 1.0 | 1.0 | 0.00 | 0.00 | 0.00 | 62 | 1019.7 |
| 20260905201004 | 84 | 284 | 1.0 | 2.0 | 0.00 | 0.00 | 0.00 | 62 | 1019.6 |
| 20260905200503 | 84 | 296 | 1.0 | 2.0 | 0.00 | 0.00 | 0.00 | 62 | 1019.6 |
| 20260905200004 | 84 | 302 | 1.0 | 2.0 | 0.00 | 0.00 | 0.00 | 62 | 1019.6 |
| 20260905195715 | 84 | 295 | 1.0 | 2.0 | 0.00 | 0.00 | 0.00 | 62 | 1019.5 |
| 20260905195004 | 84 | 290 | 1.0 | 2.0 | 0.00 | 0.00 | 0.00 | 62 | 1019.5 |
| 20260905194504 | 84 | 291 | 1.0 | 2.0 | 0.00 | 0.00 | 0.00 | 62 | 1019.7 |
| 20260905194214 | 84 | 294 | 1.0 | 2.0 | 0.00 | 0.00 | 0.00 | 62 | 1019.7 |
| 20260905193503 | 84 | 294 | 1.0 | 2.0 | 0.00 | 0.00 | 0.00 | 62 | 1019.7 |
| 20260905193003 | 84 | 275 | 0.0 | 1.0 | 0.00 | 0.00 | 0.00 | 62 | 1019.6 |
| 20260905192503 | 84 | 319 | 0.0 | 2.0 | 0.00 | 0.00 | 0.00 | 62 | 1019.6 |
| 20260905192003 | 84 | 307 | 1.0 | 2.0 | 0.00 | 0.00 | 0.00 | 62 | 1019.5 |
| 20260905191504 | 84 | 319 | 1.0 | 2.0 | 0.00 | 0.00 | 0.00 | 62 | 1019.5 |
| 20260905191003 | 84 | 339 | 1.0 | 2.0 | 0.00 | 0.00 | 0.00 | 61 | 1019.4 |
| 20260905190503 | 84 | 172 | 0.0 | 1.0 | 0.00 | 0.00 | 0.00 | 61 | 1019.1 |
| 20260905190219 | 84 | 154 | 0.0 | 1.0 | 0.00 | 0.00 | 0.00 | 61 | 1019.2 |
| 20260905185503 | 84 | 103 | 0.0 | 3.0 | 0.00 | 0.00 | 0.00 | 61 | 1019.1 |
| 20260905185005 | 85 | 79 | 1.0 | 3.0 | 0.00 | 0.00 | 0.00 | 61 | 1019.2 |
| 20260905184504 | 85 | 32 | 1.0 | 2.0 | 0.00 | 0.00 | 0.00 | 60 | 1019.1 |
| 20260905184004 | 85 | 36 | 0.0 | 2.0 | 0.00 | 0.00 | 0.00 | 59 | 1019.1 |
| 20260905183504 | 85 | 77 | 0.0 | 2.0 | 0.00 | 0.00 | 0.00 | 58 | 1019.0 |
| 20260905183216 | 85 | 80 | 1.0 | 2.0 | 0.00 | 0.00 | 0.00 | 57 | 1019.3 |
| 20260905182503 | 85 | 93 | 0.0 | 2.0 | 0.00 | 0.00 | 0.00 | 57 | 1019.2 |
| 20260905182004 | 85 | 100 | 0.0 | 2.0 | 0.00 | 0.00 | 0.00 | 57 | 1019.2 |
| 20260905181504 | 85 | 115 | 0.0 | 2.0 | 0.00 | 0.00 | 0.00 | 56 | 1019.1 |
| 20260905181003 | 85 | 107 | 0.0 | 2.0 | 0.00 | 0.00 | 0.00 | 56 | 1018.9 |
| 20260905180504 | 85 | 103 | 0.0 | 2.0 | 0.00 | 0.00 | 0.00 | 56 | 1018.9 |
| 20260905180214 | 85 | 110 | 1.0 | 3.0 | 0.00 | 0.00 | 0.00 | 55 | 1018.9 |
| 20260905175504 | 85 | 117 | 1.0 | 3.0 | 0.00 | 0.00 | 0.00 | 56 | 1018.7 |
| 20260905175005 | 85 | 116 | 1.0 | 3.0 | 0.00 | 0.00 | 0.00 | 56 | 1018.6 |
| 20260905174503 | 85 | 112 | 1.0 | 3.0 | 0.00 | 0.00 | 0.00 | 56 | 1018.7 |
| 20260905174003 | 85 | 110 | 0.0 | 3.0 | 0.00 | 0.00 | 0.00 | 57 | 1019.1 |
| 20260905173504 | 85 | 82 | 1.0 | 3.0 | 0.00 | 0.00 | 0.00 | 57 | 1018.8 |
| 20260905173004 | 85 | 69 | 1.0 | 3.0 | 0.00 | 0.00 | 0.00 | 56 | 1018.8 |
| 20260905172504 | 85 | 80 | 1.0 | 4.0 | 0.00 | 0.00 | 0.00 | 56 | 1018.7 |
| 20260905172003 | 85 | 87 | 1.0 | 4.0 | 0.00 | 0.00 | 0.00 | 57 | 1018.6 |
| 20260905171504 | 85 | 114 | 1.0 | 2.0 | 0.00 | 0.00 | 0.00 | 56 | 1018.8 |
| 20260905171004 | 85 | 129 | 1.0 | 3.0 | 0.00 | 0.00 | 0.00 | 56 | 1018.7 |
| 20260905170716 | 85 | 131 | 1.0 | 3.0 | 0.00 | 0.00 | 0.00 | 56 | 1018.8 |